Wind_Speed
33 35 45 38 32 28 20 27 25 23 20 17 20 17 11 11 17 19 20 21 19 20 11 18 23 27 29 30 30 29 28 26 24 22 19 17 15 14 11 10 10 12 11 9
29 44 33 31 30 31 29 23 27 24 17 14 17 16 12 13 16 18 10 11 21 20 23 19 23 27 29 29 30 30 28 28 25 23 20 18 15 14 13 13 12 11 11 11
35 21 31 31 32 33 34 33 28 23 15 16 18 22 19 16 15 16 19 18 17 21 24 22 23 24 27 29 29 29 28 28 26 24 23 20 19 18 16 15 13 12 11 11
34 28 26 33 34 35 36 32 27 24 23 24 19 22 24 23 20 21 18 19 21 20 25 26 22 25 24 26 28 28 28 27 26 25 24 21 18 15 13 13 13 14 14 14
36 34 34 35 37 32 34 26 25 28 25 25 27 19 27 20 22 24 23 21 20 24 24 24 21 18 19 23 28 28 28 28 27 26 24 22 20 17 16 16 15 16 15 14
37 20 32 30 26 27 26 22 25 22 26 27 35 32 32 30 27 24 23 22 18 24 25 26 22 19 23 25 25 28 29 28 28 27 26 24 21 18 17 15 15 14 13 13
35 39 26 27 30 24 31 25 16 18 23 21 31 35 36 17 29 25 24 23 18 20 21 23 28 28 23 25 28 30 30 29 28 27 27 26 22 21 19 18 18 18 16 14
35 32 40 34 36 30 38 36 22 18 15 19 27 26 40 33 27 14 23 24 23 22 22 21 22 26 27 22 23 21 29 28 30 29 27 25 24 23 22 22 21 19 17 16
33 39 32 28 36 34 35 44 37 12 12 13 26 34 25 17 30 32 32 20 26 26 21 20 21 21 24 28 27 25 22 22 30 31 30 30 27 28 26 24 23 21 19 18
28 28 25 35 31 32 28 34 34 32 17 17 18 26 23 25 32 25 28 28 24 30 25 21 18 21 20 22 25 27 28 25 22 25 27 30 30 30 29 27 26 24 20 18
27 24 32 29 42 41 39 31 40 31 27 14 12 21 25 29 22 27 28 27 27 27 26 26 19 18 20 20 23 26 28 28 29 28 24 21 22 33 32 31 29 27 24 21
31 22 21 37 33 34 38 35 41 28 32 36 21 14 7 11 21 23 24 24 26 25 24 23 22 19 13 15 20 24 28 30 30 28 29 27 25 21 25 31 30 30 29 25
24 27 26 20 28 31 43 43 38 39 26 31 25 8 8 9 14 18 19 20 25 29 33 34 33 28 19 19 25 26 27 28 29 30 29 29 29 29 26 22 22 25 27 27
28 20 38 31 28 32 38 41 39 42 41 32 30 23 13 10 9 9 8 10 11 14 14 22 34 36 30 24 21 21 30 31 32 34 34 32 31 29 27 26 25 26 27 28
9 25 18 23 15 12 27 42 42 44 43 41 31 30 25 15 13 12 10 8 11 12 16 16 17 23 24 21 20 20 22 29 36 37 37 36 33 32 31 32 31 30 32 31
2 12 13 20 15 12 16 22 30 39 44 40 38 33 21 20 23 26 24 23 18 21 20 14 21 28 25 25 23 22 22 26 36 41 39 38 37 36 35 34 34 35 33 32
6 9 9 23 19 16 23 31 31 30 33 33 39 30 28 28 23 21 22 21 22 29 23 18 20 21 20 25 26 26 25 26 28 41 41 40 39 37 36 36 36 36 39 34
9 10 11 12 14 16 26 21 29 34 31 30 28 25 24 24 24 23 23 26 24 22 23 27 25 20 23 26 29 29 31 29 29 37 43 41 41 39 38 39 38 40 40 41
16 12 14 19 21 9 11 13 12 19 28 29 24 23 26 26 26 31 29 28 23 17 20 30 32 29 26 25 26 32 33 33 33 33 43 45 43 39 39 36 30 38 41 42
17 18 18 13 21 18 12 30 11 10 16 18 15 14 14 22 28 28 20 19 22 20 21 20 25 31 27 26 27 33 34 34 33 35 39 41 42 39 36 34 35 37 41 43
21 20 25 26 23 18 17 6 9 16 4 14 14 16 21 20 16 20 29 30 29 26 26 22 22 31 28 27 32 33 34 31 30 34 38 39 37 36 32 32 34 39 35 38
16 19 24 28 29 31 20 19 17 10 8 10 15 15 19 25 26 21 16 32 31 27 29 25 20 28 30 28 30 33 34 32 33 32 36 35 33 34 35 36 37 37 38 44
24 24 23 23 29 21 17 25 29 29 28 19 28 18 20 17 24 29 29 25 34 33 33 29 21 23 30 29 30 29 31 30 35 34 35 38 38 36 33 32 35 40 42 44
25 23 27 28 35 33 27 27 33 34 40 34 29 24 20 22 22 19 27 23 28 33 27 30 27 19 28 29 26 26 23 28 28 33 36 36 35 35 34 33 34 34 35 36
22 22 29 35 36 34 32 31 34 35 38 43 49 43 28 27 25 25 24 28 28 30 31 30 27 21 26 31 30 30 29 25 23 23 26 27 27 28 30 30 30 28 28 28
30 36 40 45 32 31 30 27 27 38 41 37 38 39 42 36 29 28 28 34 39 33 33 33 30 26 25 33 33 32 32 31 28 27 28 29 30 31 32 32 32 32 32 34
Wind_Direction
196 197 207 208 209 215 220 223 224 224 224 236 235 241 247 228 206 200 212 221 221 224 224 214 206 203 204 202 203 201 203 202 206 209 213 219 224 225 222 226 228 220 223 229
198 216 213 211 214 216 218 220 223 222 226 235 233 241 240 228 213 207 207 230 229 220 221 217 208 206 209 206 206 203 204 205 206 210 213 217 222 223 217 220 222 222 228 234
206 224 209 210 212 216 220 221 223 226 229 238 244 248 238 233 222 214 217 216 216 231 229 229 220 210 209 208 208 206 207 208 208 209 212 212 214 215 214 219 224 228 236 242
216 213 205 209 215 213 222 223 227 232 232 245 231 257 235 231 231 225 225 235 216 207 228 229 234 220 214 210 210 209 208 211 209 211 216 214 216 221 222 223 226 229 233 240
216 213 215 212 218 215 228 222 228 232 236 243 241 245 245 226 226 229 227 229 224 211 216 219 223 218 215 210 209 210 211 213 213 213 216 215 215 214 215 218 222 225 232 239
221 226 215 222 218 219 221 218 224 232 230 239 236 235 246 232 231 226 226 229 232 220 214 217 218 220 215 214 211 215 217 216 216 216 217 216 216 219 223 227 232 238 242 246
220 220 220 216 215 215 203 197 196 216 222 234 231 234 231 235 229 230 222 229 236 231 209 218 218 221 214 215 216 218 220 223 225 225 222 219 219 222 225 227 231 235 237 238
209 219 214 211 210 204 202 200 206 211 214 224 221 234 238 236 231 217 222 223 231 223 203 216 225 227 221 218 222 221 226 223 225 228 230 227 225 227 228 228 233 237 239 235
206 223 209 210 203 198 202 209 208 240 226 258 225 227 238 227 228 229 232 226 215 220 215 216 219 220 226 218 214 221 224 224 228 231 235 234 234 235 237 237 239 239 236 234
228 222 210 203 199 210 208 209 210 224 237 231 228 231 225 225 223 217 218 215 212 213 220 224 224 221 219 224 226 226 229 230 230 232 235 237 239 239 239 237 236 239 239 234
207 212 206 197 204 200 199 204 211 218 224 217 233 236 238 231 222 213 213 209 207 212 221 219 227 218 210 213 217 222 225 225 228 231 228 230 239 241 237 238 239 240 235 230
201 214 213 208 209 208 208 206 203 212 215 234 268 248 182 211 217 218 217 217 217 223 222 230 233 216 221 228 225 223 224 221 222 230 233 234 236 235 234 237 237 235 236 232
200 211 209 205 209 214 211 212 211 213 223 215 219 205 175 156 192 199 202 210 213 213 220 224 228 231 236 240 230 225 224 229 229 224 225 231 234 236 240 235 231 235 239 237
199 206 215 216 209 206 211 212 212 212 222 225 216 225 204 212 163 152 165 191 211 211 216 235 235 238 238 240 230 231 230 222 222 225 225 229 230 233 238 241 238 239 242 245
186 210 219 224 221 210 213 213 212 215 222 225 227 222 223 219 220 219 218 223 201 206 215 223 212 213 216 221 234 236 240 231 221 223 226 231 233 233 234 239 239 238 237 243
189 202 213 224 221 221 220 213 213 220 225 231 234 237 228 241 240 247 253 254 232 213 208 225 225 217 228 233 238 241 244 249 229 220 226 228 232 233 234 237 236 237 240 243
261 216 229 224 218 238 240 219 219 221 220 223 231 235 235 238 246 246 246 259 264 256 233 218 214 211 219 226 225 232 241 245 241 223 225 226 231 233 236 241 240 241 246 244
233 241 233 231 206 235 237 231 228 226 227 229 238 236 237 241 246 252 261 269 267 253 234 221 208 230 242 233 235 234 240 246 244 229 225 224 231 232 233 238 242 243 245 247
217 218 235 228 225 240 194 208 214 216 229 229 238 242 246 251 257 262 266 260 268 263 235 225 222 236 227 225 234 235 232 239 244 241 233 228 227 228 230 238 242 243 245 246
210 212 219 221 236 232 248 235 210 229 235 209 226 230 246 247 252 261 259 258 251 246 226 219 221 224 231 230 232 235 236 236 236 240 230 227 228 229 227 234 241 239 241 244
205 213 220 228 243 238 226 189 183 200 153 183 218 226 233 229 242 243 221 225 227 229 218 226 233 229 232 239 233 231 233 236 239 237 228 228 231 236 238 242 247 241 240 246
211 211 221 229 239 240 228 228 223 194 236 238 210 218 230 233 240 250 235 229 224 222 222 233 240 229 232 241 237 241 234 237 238 242 229 224 231 236 241 249 248 249 249 258
238 233 240 228 233 241 228 232 232 236 236 212 215 230 237 226 234 246 253 258 225 225 226 229 231 233 227 239 241 247 238 238 234 239 231 227 235 240 253 268 259 258 259 258
245 240 248 251 243 245 243 249 226 227 231 225 218 213 241 233 250 239 245 253 233 228 234 228 233 237 223 230 236 234 233 240 241 239 234 237 243 249 259 263 257 258 263 261
247 246 249 254 253 252 249 248 246 225 230 234 241 240 247 243 234 235 244 252 245 236 235 239 241 242 231 221 229 235 238 238 236 236 235 238 245 250 256 259 264 267 264 268
262 257 252 255 258 253 253 252 253 242 233 232 227 230 230 231 222 236 245 258 244 242 239 244 248 241 239 225 227 233 236 241 246 241 241 245 248 251 254 259 264 267 271 272
Height
3114 3118 3111 3122 3130 3137 3140 3143 3145 3148 3151 3153 3153 3156 3158 3157 3158 3160 3161 3164 3168 3170 3174 3175 3177 3180 3182 3186 3190 3193 3197 3201 3204 3207 3210 3212 3215 3217 3218 3220 3220 3222 3223 3224
3113 3103 3116 3124 3129 3132 3136 3139 3140 3145 3147 3149 3150 3151 3153 3154 3155 3156 3158 3160 3164 3167 3169 3171 3173 3176 3179 3183 3187 3190 3194 3198 3201 3205 3208 3210 3213 3215 3216 3218 3219 3220 3221 3222
3099 3105 3114 3117 3122 3125 3128 3131 3137 3141 3143 3144 3146 3146 3148 3150 3152 3153 3155 3157 3160 3164 3166 3168 3170 3172 3175 3179 3183 3187 3191 3195 3199 3202 3205 3207 3210 3212 3214 3215 3218 3219 3220 3221
3099 3105 3106 3111 3113 3119 3121 3129 3134 3137 3140 3139 3141 3138 3139 3143 3146 3149 3151 3151 3155 3157 3162 3164 3166 3169 3171 3176 3180 3184 3189 3192 3195 3199 3202 3205 3208 3210 3212 3214 3215 3216 3218 3219
3087 3094 3100 3102 3104 3114 3116 3126 3128 3133 3135 3137 3135 3136 3133 3136 3140 3143 3146 3148 3148 3152 3156 3161 3162 3165 3169 3173 3176 3181 3185 3189 3192 3196 3199 3203 3205 3207 3209 3210 3212 3214 3215 3216
3087 3091 3096 3096 3105 3108 3116 3121 3124 3127 3130 3124 3124 3129 3123 3127 3132 3137 3141 3143 3145 3147 3151 3156 3160 3163 3165 3169 3173 3177 3181 3185 3188 3192 3195 3199 3202 3204 3206 3208 3210 3211 3213 3214
3081 3083 3087 3093 3098 3102 3108 3113 3114 3117 3112 3105 3118 3119 3116 3121 3126 3130 3135 3139 3141 3142 3146 3151 3154 3158 3162 3165 3168 3172 3176 3181 3184 3188 3191 3195 3198 3201 3203 3205 3206 3208 3210 3211
3071 3072 3075 3079 3085 3092 3096 3101 3097 3098 3095 3103 3111 3102 3105 3116 3121 3124 3128 3134 3137 3137 3142 3146 3150 3154 3158 3162 3166 3169 3172 3177 3180 3184 3187 3191 3195 3197 3199 3201 3203 3205 3207 3209
3060 3063 3067 3072 3079 3086 3089 3089 3095 3095 3095 3095 3092 3100 3106 3107 3111 3116 3121 3127 3132 3133 3137 3142 3146 3149 3153 3157 3160 3164 3167 3171 3174 3178 3182 3186 3190 3192 3195 3198 3200 3201 3203 3205
3054 3058 3061 3069 3075 3078 3081 3089 3094 3091 3091 3092 3089 3092 3093 3096 3101 3107 3113 3120 3125 3129 3134 3137 3141 3144 3147 3151 3156 3160 3163 3167 3170 3173 3176 3179 3183 3187 3190 3192 3194 3196 3199 3200
3050 3052 3054 3061 3055 3062 3073 3076 3082 3088 3085 3082 3083 3082 3086 3091 3095 3100 3106 3113 3120 3124 3129 3133 3137 3140 3142 3145 3148 3152 3156 3160 3164 3167 3170 3173 3176 3180 3183 3185 3188 3191 3193 3196
3045 3047 3046 3048 3057 3062 3066 3069 3073 3075 3080 3082 3080 3079 3081 3086 3090 3096 3103 3108 3115 3120 3125 3128 3132 3134 3137 3140 3143 3146 3150 3153 3157 3162 3165 3168 3172 3174 3176 3178 3182 3185 3187 3190
3037 3038 3043 3046 3053 3053 3053 3060 3066 3072 3074 3072 3078 3079 3080 3083 3086 3090 3097 3102 3106 3111 3113 3119 3124 3128 3131 3134 3137 3140 3143 3147 3152 3156 3159 3162 3165 3167 3169 3172 3176 3179 3181 3184
3028 3033 3033 3030 3038 3046 3049 3051 3058 3064 3064 3066 3070 3076 3080 3084 3087 3090 3094 3099 3102 3105 3109 3112 3117 3121 3126 3130 3132 3135 3137 3141 3143 3147 3152 3155 3158 3161 3164 3167 3170 3172 3175 3177
3027 3030 3032 3034 3033 3034 3039 3044 3050 3052 3057 3058 3068 3071 3077 3082 3085 3088 3090 3093 3096 3101 3105 3108 3112 3115 3120 3123 3126 3129 3131 3133 3137 3139 3144 3147 3152 3156 3159 3161 3164 3167 3169 3172
3025 3028 3030 3030 3033 3035 3037 3038 3042 3047 3051 3056 3061 3065 3074 3078 3079 3082 3085 3086 3089 3093 3096 3101 3104 3109 3113 3116 3119 3121 3124 3126 3128 3132 3135 3141 3145 3148 3152 3154 3157 3160 3162 3165
3025 3026 3028 3026 3031 3033 3032 3032 3037 3043 3046 3051 3051 3064 3069 3071 3074 3076 3079 3083 3085 3089 3092 3095 3097 3102 3106 3109 3111 3114 3117 3118 3120 3125 3129 3132 3137 3140 3144 3147 3150 3153 3154 3158
3023 3025 3027 3024 3028 3026 3020 3030 3032 3036 3041 3046 3051 3056 3060 3064 3068 3070 3073 3077 3079 3082 3085 3090 3092 3095 3098 3100 3103 3107 3110 3113 3114 3117 3121 3125 3128 3132 3137 3140 3144 3146 3147 3149
3019 3023 3024 3024 3022 3018 3019 3024 3029 3032 3035 3042 3046 3051 3054 3058 3061 3061 3066 3069 3073 3075 3079 3083 3086 3088 3089 3091 3095 3097 3101 3104 3107 3109 3114 3117 3121 3125 3128 3132 3135 3137 3139 3141
3016 3018 3023 3021 3020 3013 3019 3021 3025 3029 3033 3037 3038 3044 3046 3049 3052 3058 3063 3065 3066 3068 3070 3073 3077 3079 3082 3085 3087 3090 3093 3096 3100 3103 3106 3110 3113 3117 3121 3124 3126 3127 3129 3131
3011 3014 3014 3017 3015 3012 3015 3016 3020 3028 3032 3029 3033 3036 3037 3042 3043 3046 3050 3051 3055 3058 3062 3065 3068 3071 3076 3078 3081 3082 3085 3089 3094 3095 3098 3102 3107 3110 3112 3114 3116 3118 3120 3122
3005 3008 3008 3012 3010 3007 3012 3014 3019 3022 3019 3022 3023 3025 3029 3033 3036 3039 3041 3044 3047 3051 3055 3059 3060 3064 3068 3070 3073 3075 3079 3083 3084 3087 3090 3094 3098 3100 3102 3104 3106 3107 3109 3111
3003 3001 3000 3002 2999 3001 3004 3007 3006 3006 3007 3013 3015 3018 3021 3025 3030 3031 3033 3036 3039 3043 3047 3051 3054 3056 3060 3064 3067 3069 3072 3074 3077 3080 3084 3086 3089 3092 3094 3096 3097 3098 3100 3101
2996 2996 2993 2995 2991 2992 2995 2995 2997 3001 3003 3005 3008 3012 3016 3019 3023 3025 3026 3029 3032 3036 3040 3044 3047 3049 3053 3057 3061 3063 3065 3068 3070 3073 3076 3079 3082 3085 3086 3088 3089 3089 3091 3092
2990 2989 2986 2981 2982 2985 2986 2988 2988 2991 2995 3000 3004 3009 3013 3017 3018 3019 3020 3022 3025 3029 3032 3037 3040 3042 3046 3050 3053 3056 3059 3062 3064 3066 3069 3072 3074 3076 3078 3079 3080 3081 3082 3082
2978 2975 2973 2965 2974 2975 2975 2978 2980 2982 2985 2988 2993 2998 3005 3009 3011 3012 3014 3017 3018 3022 3026 3029 3032 3036 3039 3042 3046 3049 3052 3054 3057 3060 3062 3065 3067 3068 3069 3070 3070 3072 3073 3073